STARLINK-31927, 59837

Orbit data source: Space-Track

STARLINK-31927, 59837 is a payload satellite owned by SpaceX/Seattle (US) in LEO that was launched on Thu, 23 May 2024 UTC via an FALCON 9 launch vehicle from the Air Force Eastern Test Range (AFETR). Payload-class satellites include a variety of spacecraft equipped with specific instruments for various scientific and technological missions. These include communications satellites like Starlink; space stations such as the ISS; scientific satellites like the Hubble; Earth observation satellites from companies like Planet Labs, Umbra, and HawkEye 360; GPS; miniature CubeSats for education and research; and military/defense satellites.

Loading next visibility...
Identifier
59837, 2024-097C
Orbit
LEO
Country
Flag of USUS
Related business
Manufacturer
SpaceX/Seattle
Mission
Operational Commercial Communications
Bus & Motor
STARLINK V2M, Unknown motor
Mass
730 kg wet, ~700 kg dry
Launch date (UTC)
2024-05-23 (2 years ago)
Launch vehicle
FALCON 9
Launch site
Air Force Eastern Test Range (AFETR)
Object type
Payload
Rocket body
Debris
Shape & HBR
Box + 2 Pan, 17.7 m
Radar Cross Section
33.884 m², Large (>1 m²)

Expand to show TLE details & history
Last TLE update: 2 days ago

TLE from 2 days ago
0 STARLINK-31927
1 59837U 24097C   26171.39237352  .00001299  00000-0  56715-4 0  9994
2 59837  43.0016  54.3723 0001164 277.0361  83.0358 15.27572087117628
Epoch: 2026-06-20T09:25Z
TLE epoch observation values (Epoch: 2026-06-20T09:25:01.072Z)
Latitude
-0.00002°
Longitude
4.51016°
Altitude
482.752 km
Speed
7.626 km/s
True Right ascension
03h 37m 29s
True Declination
0° 00' 00"
Sunlit
Object was in daylight at epoch
Visualization orbit readout
Latitude
Unknown
Longitude
Unknown
Altitude
Unknown
Speed
Unknown
Apparent Right ascension
Unknown
Apparent Declination
Unknown
Sunlit
N/A
Visualization observer readout
Local Sidereal Time
21:29:07
Azimuth
Unknown
Elevation
Unknown
Doppler factor
Unknown
Orbital elements
Apogee altitude
485.817 km
Perigee altitude
484.219 km
Semi-major axis
6,863.155 km
Eccentricity
0.00012
Inclination
43.0016°
RAAN
54.3723°
Arg. of periapsis
277.0361°
True anomaly
83.04904°
Mean anomaly
83.0358°
Eccentric anomaly
83.04242°
Mean motion
3.81731 °/min
Orbital period
94.31 mins
BSTAR
0.000056715
Loading maneuver chart data...
Computing Atmospheric mass density...
Loading historical data...
Loading historical data...
Loading historical data...
Loading historical data...
Loading historical data...
Loading historical data...
Loading historical data...

Documentation

Showing up to 5 results
|